| DS18B20 | SHTC3 | PZEM-004T | WiFi | ||||||||
|---|---|---|---|---|---|---|---|---|---|---|---|
| ID | Date d/m/Y & Time | data1 สูง | data2 ต่ำ | data3 นอก | temp pcb | hum pcb | Volt | Amp | Watt | rssi | Time |
| 16716 | 28/08/2026 08:39:16 | 31.0  | 29.8  | 29.8  | 31.6  | 63.5  | 228.9  | 0.04  | 4.5  | -61  | 08:39 |
| 16715 | 28/08/2026 08:34:32 | 30.9  | 29.7  | 29.7  | 31.5  | 63.6  | 229.9  | 0.04  | 4.5  | -62  | 08:34 |
| 16714 | 28/08/2026 08:29:49 | 30.9  | 29.7  | 29.9  | 31.5  | 63.8  | 230.3  | 0.04  | 4.5  | -61  | 08:29 |
| 16713 | 28/08/2026 08:25:05 | 30.8  | 29.6  | 29.8  | 31.4  | 63.9  | 230.1  | 0.04  | 4.5  | -61  | 08:25 |
| 16712 | 28/08/2026 08:20:21 | 30.7  | 29.6  | 29.7  | 31.4  | 64.2  | 230.5  | 0.04  | 4.5  | -61  | 08:20 |
| 16711 | 28/08/2026 08:15:38 | 30.6  | 29.6  | 29.7  | 31.1  | 64.3  | 228.4  | 0.04  | 4.5  | -61  | 08:15 |
| 16710 | 28/08/2026 08:10:54 | 30.5  | 29.5  | 29.6  | 31.1  | 64.5  | 230.3  | 0.04  | 4.5  | -61  | 08:10 |
| 16709 | 28/08/2026 08:06:11 | 30.4  | 29.5  | 29.5  | 31.0  | 64.7  | 229.3  | 0.04  | 4.5  | -61  | 08:06 |
| 16708 | 28/08/2026 08:01:28 | 30.3  | 29.4  | 29.4  | 31.0  | 65.0  | 230.6  | 0.04  | 4.5  | -61  | 08:01 |
| 16707 | 28/08/2026 07:56:45 | 30.2  | 29.4  | 29.1  | 30.7  | 65.2  | 231.5  | 0.04  | 4.5  | -62  | 07:56 |
| 16706 | 28/08/2026 07:52:01 | 30.2  | 29.4  | 28.7  | 30.7  | 65.6  | 232.1  | 0.04  | 4.5  | -62  | 07:52 |
| 16705 | 28/08/2026 07:47:17 | 30.0  | 29.4  | 28.7  | 30.4  | 66.0  | 232.0  | 0.04  | 4.5  | -61  | 07:47 |
| 16704 | 28/08/2026 07:42:34 | 29.8  | 29.3  | 28.4  | 30.4  | 66.4  | 230.6  | 0.04  | 4.5  | -61  | 07:42 |
| 16703 | 28/08/2026 07:37:50 | 29.3  | 29.2  | 28.1  | 30.1  | 66.5  | 231.5  | 0.04  | 4.5  | -63  | 07:37 |
| 16702 | 28/08/2026 07:33:07 | 29.3  | 29.2  | 28.0  | 30.2  | 66.3  | 230.6  | 0.04  | 4.5  | -61  | 07:33 |
| 16701 | 28/08/2026 07:28:23 | 29.2  | 29.2  | 27.9  | 30.2  | 66.6  | 231.4  | 0.04  | 4.5  | -61  | 07:28 |
| 16700 | 28/08/2026 07:23:40 | 29.2  | 29.2  | 27.7  | 30.2  | 66.5  | 230.3  | 0.04  | 4.5  | -61  | 07:23 |
| 16699 | 28/08/2026 07:18:57 | 29.2  | 29.2  | 27.5  | 30.2  | 66.5  | 230.5  | 0.04  | 4.5  | -61  | 07:18 |
| 16698 | 28/08/2026 07:14:13 | 29.2  | 29.2  | 27.3  | 30.1  | 66.6  | 232.1  | 0.04  | 4.5  | -62  | 07:14 |
| 16697 | 28/08/2026 07:09:30 | 29.2  | 29.2  | 27.2  | 30.1  | 66.6  | 231.9  | 0.04  | 4.5  | -62  | 07:09 |
| 16696 | 28/08/2026 07:04:47 | 29.2  | 29.2  | 27.4  | 30.1  | 66.7  | 231.8  | 0.04  | 4.5  | -63  | 07:04 |
| 16695 | 28/08/2026 07:00:04 | 29.2  | 29.2  | 27.2  | 30.1  | 66.7  | 231.4  | 0.04  | 4.5  | -64  | 07:00 |
| 16694 | 28/08/2026 06:55:20 | 29.2  | 29.2  | 27.1  | 30.2  | 66.9  | 229.5  | 0.04  | 4.5  | -62  | 06:55 |
| 16693 | 28/08/2026 06:50:37 | 29.2  | 29.3  | 26.9  | 30.2  | 66.8  | 229.3  | 0.04  | 4.5  | -61  | 06:50 |